Location: Bijele Vode
(45.2833°N, 16.2000°E)
Time: 20:31:46
(UTC+00:00)

SPOT 3 Rocket - Pass Details

Date: 18 September 2020
Orbit: 780 x 794 km, 98.7° (Epoch: 27 October)

Event Time Altitude Azimuth Distance (km) Brightness Sun altitude
Exits shadow 18:22:57 24° 105° (ESE) 1,587 4.5 -15.2°
Maximum altitude 18:25:01 32° 65° (ENE) 1,318 4.3 -15.5°
Drops below altitude 10° 18:29:33 10° 4° (N) 2,344 6.2 -16.3°
Sets 18:32:04 0° 355° (N) 3,277 7.1 -16.7°
